User: anonymous   Login
Location: Follega
(52.8850°N, 5.7362°E)
Time: 21:56:00
(UTC+00:00)
Language:

EXPRESS MD2 - Orbit

View from above orbital plane
View from above orbital plane
View from above satellite
View from above satellite

Ground track
Ground track

The orbit data is extracted from the following two-line orbital elements,

1 38745U 12044B   21127.12972938  .00010128  33952-5  26116-3 0  9990
2 38745  49.8784 356.0006 2180884  38.1270 335.5331 11.09766975343207
Epoch (UTC): 07 May 2021 03:06:48
Eccentricity: 0.2180884
inclination: 49.8784°
perigee height: 260 km
apogee height: 3963 km
right ascension of ascending node: 356.0006°
argument of perigee: 38.1270°
revolutions per day: 11.09766975
mean anomaly at epoch: 335.5331°
orbit number at epoch: 34320

The dashed part of the orbit path shows where the satellite is in the earth's shadow,  

DLR